Location: Newark
(45.6167°N, 9.2167°E)
Time: 05:45:33
(UTC+00:00)

ISS - Visible Passes

Search period start: 22 October 2019 00:00
Search period end: 01 November 2019 00:00
Orbit: 411 x 421 km, 51.6° (Epoch: 22 October)

Date Brightness Start Highest point End Pass type
(mag) Time Alt. Az. Time Alt. Az. Time Alt. Az.
24 Oct -1.1 04:48:37 10° S 04:51:08 20° SE 04:53:39 10° E visible
25 Oct -0.7 04:01:21 10° SSE 04:02:44 12° SE 04:04:08 10° ESE visible
26 Oct -2.8 04:47:10 10° SW 04:50:24 47° SE 04:53:40 10° ENE visible
27 Oct -2.0 04:00:46 23° S 04:01:54 29° SE 04:04:52 10° ENE visible
28 Oct -0.8 03:14:38 15° ESE 03:14:38 15° ESE 03:15:49 10° E visible
28 Oct -3.8 04:47:33 19° WSW 04:49:49 77° NNW 04:53:12 10° ENE visible
29 Oct -3.6 04:01:15 70° SE 04:01:15 70° SE 04:04:33 10° ENE visible
30 Oct -0.8 03:14:50 17° ENE 03:14:50 17° ENE 03:15:50 10° ENE visible
30 Oct -3.1 04:47:45 24° WNW 04:49:22 42° NNW 04:52:35 10° NE visible
31 Oct -3.0 04:01:14 47° NNE 04:01:14 47° NNE 04:03:57 10° ENE visible
